Arroyo Seco, NM

9:21 AM MDT on August 25, 2016 (GMT -0600)
Taos Municipal

Weather History for KSKX - January, 2013

Change the Weather History Date:

Monday, January 28, 2013

  Actual Average Record
Temperature  
Mean Temperature 36 °F -  
Max Temperature 44 °F 40 °F 55 °F (2003)
Min Temperature 28 °F 12 °F 1 °F (2004)
Degree Days  
Heating Degree Days 29    
Moisture  
Dew Point 30 °F    
Average Humidity 82    
Maximum Humidity 93    
Minimum Humidity 57    
Precipitation  
Precipitation 0.07 in - - ()
Sea Level Pressure  
Sea Level Pressure 29.84 in    
Wind  
Wind Speed 7 mph (SW)    
Max Wind Speed 30 mph    
Max Gust Speed 40 mph    
Visibility 9 miles    
Events      
Averages and records for this station are not official NWS values.
T = Trace of Precipitation, MM = Missing Value Source: NWS Daily Summary

Daily Weather History Graph

Daily Weather History Graph

Search for Another Location

Airport or City:

Trip Planner

Search our weather history database for the weather conditions in past years. The results will help you decide how hot, cold, wet, or windy it might be!

Date:

Astronomy

Jan. 28, 2013 Rise Set
Actual Time 7:06 AM MST 5:24 PM MST
Civil Twilight 6:39 AM MST 5:52 PM MST
Nautical Twilight 6:08 AM MST 6:23 PM MST
Astronomical Twilight 5:38 AM MST 6:53 PM MST
Moon 7:17 PM MST (1/28) 7:38 AM MST (1/28)
Length of Visible Light 11h 12m
Length of Day
10h 17m
Full, 97% of the Moon is Illuminated
Jan 28
Full
Feb 3
Last Quarter
Feb 10
New
Feb 17
First Quarter
Feb 25
Full

Hourly Weather History & Observations

Time (MST) Temp. Windchill Dew Point Humidity Pressure Visibility Wind Dir Wind Speed Gust Speed Precip Events Conditions
12:15 AM 35.6 °F 32.8 °F 30.2 °F 81% 29.96 in 10.0 mi SW 3.5 mph - N/A   Overcast
12:35 AM 33.8 °F - 28.4 °F 81% 29.96 in 10.0 mi Calm Calm - N/A   Overcast
12:55 AM 35.6 °F - 30.2 °F 81% 29.96 in 10.0 mi Calm Calm - N/A   Overcast
1:15 AM 35.6 °F - 30.2 °F 81% 29.95 in 10.0 mi Calm Calm - N/A   Overcast
1:35 AM 33.8 °F 30.8 °F 30.2 °F 87% 29.95 in 10.0 mi NE 3.5 mph - N/A   Mostly Cloudy
1:55 AM 35.6 °F - 32.0 °F 87% 29.94 in 10.0 mi Calm Calm - N/A   Mostly Cloudy
2:15 AM 33.8 °F 30.8 °F 30.2 °F 87% 29.94 in 10.0 mi North 3.5 mph - N/A   Mostly Cloudy
2:35 AM 33.8 °F 30.8 °F 30.2 °F 87% 29.94 in 10.0 mi North 3.5 mph - N/A   Mostly Cloudy
2:55 AM 33.8 °F 29.6 °F 30.2 °F 87% 29.93 in 10.0 mi NW 4.6 mph - N/A   Overcast
3:15 AM 33.8 °F - 30.2 °F 87% 29.93 in 10.0 mi Calm Calm - N/A   Overcast
3:35 AM 33.8 °F - 30.2 °F 87% 29.93 in 10.0 mi Calm Calm - N/A   Overcast
3:55 AM 33.8 °F - 30.2 °F 87% 29.92 in 10.0 mi Calm Calm - N/A   Mostly Cloudy
4:15 AM 32.0 °F - 28.4 °F 87% 29.91 in 10.0 mi Calm Calm - N/A   Scattered Clouds
4:35 AM 33.8 °F 29.6 °F 30.2 °F 87% 29.90 in 10.0 mi South 4.6 mph - N/A   Scattered Clouds
4:55 AM 33.8 °F 28.6 °F 30.2 °F 87% 29.90 in 10.0 mi SSE 5.8 mph - N/A   Overcast
5:15 AM 33.8 °F 30.8 °F 30.2 °F 87% 29.89 in 10.0 mi SE 3.5 mph - N/A   Overcast
5:35 AM 32.0 °F 27.5 °F 30.2 °F 93% 29.88 in 10.0 mi SE 4.6 mph - N/A   Overcast
5:55 AM 33.8 °F 29.6 °F 30.2 °F 87% 29.88 in 10.0 mi ESE 4.6 mph - N/A   Overcast
6:15 AM 33.8 °F 27.0 °F 30.2 °F 87% 29.88 in 10.0 mi SSE 8.1 mph - N/A   Overcast
6:35 AM 35.6 °F 28.6 °F 30.2 °F 81% 29.87 in 10.0 mi SSW 9.2 mph - N/A   Overcast
6:55 AM 37.4 °F 30.3 °F 30.2 °F 75% 29.88 in 10.0 mi SW 10.4 mph - N/A   Overcast
7:15 AM 37.4 °F 30.3 °F 32.0 °F 81% 29.87 in 10.0 mi WSW 10.4 mph - N/A   Overcast
7:35 AM 37.4 °F 30.8 °F 30.2 °F 75% 29.87 in 10.0 mi SW 9.2 mph - N/A   Overcast
7:55 AM 37.4 °F 29.3 °F 30.2 °F 75% 29.87 in 10.0 mi SW 12.7 mph - N/A   Overcast
8:15 AM 39.2 °F 31.2 °F 30.2 °F 70% 29.86 in 10.0 mi SSW 13.8 mph - N/A   Overcast
8:35 AM 39.2 °F 30.5 °F 30.2 °F 70% 29.86 in 10.0 mi SW 16.1 mph 19.6 mph N/A   Overcast
8:55 AM 39.2 °F 30.2 °F 32.0 °F 75% 29.85 in 10.0 mi SW 17.3 mph 24.2 mph N/A   Overcast
9:15 AM 41.0 °F 32.2 °F 33.8 °F 76% 29.85 in 10.0 mi SW 18.4 mph - N/A   Overcast
9:35 AM 39.2 °F 30.5 °F 33.8 °F 81% 29.85 in 10.0 mi SW 16.1 mph - N/A   Overcast
10:15 AM 42.8 °F 33.5 °F 33.8 °F 70% 29.84 in 10.0 mi SW 23.0 mph 31.1 mph N/A   Mostly Cloudy
10:35 AM 42.8 °F 33.1 °F 32.0 °F 66% 29.84 in 10.0 mi SW 25.3 mph 40.3 mph N/A   Overcast
10:55 AM 39.2 °F 28.7 °F 32.0 °F 75% 29.83 in 10.0 mi SW 23.0 mph 33.4 mph N/A   Overcast
11:15 AM 41.0 °F 31.1 °F 32.0 °F 70% 29.82 in 10.0 mi SW 23.0 mph 35.7 mph N/A   Overcast
11:35 AM 42.8 °F 32.5 °F 33.8 °F 70% 29.81 in 10.0 mi SW 28.8 mph 38.0 mph N/A   Overcast
11:55 AM 42.8 °F 32.3 °F 32.0 °F 66% 29.80 in 10.0 mi SW 29.9 mph 35.7 mph N/A   Overcast
12:15 PM 44.6 °F 35.5 °F 30.2 °F 57% 29.79 in 10.0 mi SW 25.3 mph 36.8 mph N/A   Overcast
12:35 PM 42.8 °F 33.8 °F 30.2 °F 61% 29.78 in 10.0 mi SSW 21.9 mph 31.1 mph N/A   Overcast
12:55 PM 42.8 °F 32.7 °F 30.2 °F 61% 29.76 in 10.0 mi SW 27.6 mph 33.4 mph N/A   Overcast
1:15 PM 41.0 °F 30.0 °F 30.2 °F 65% 29.76 in 10.0 mi SW 28.8 mph 32.2 mph N/A   Overcast
1:35 PM 35.6 °F 26.6 °F 28.4 °F 75% 29.77 in 2.5 mi West 13.8 mph 28.8 mph 0.01 in   Overcast
1:55 PM 35.6 °F 26.2 °F 33.8 °F 93% 29.77 in 10.0 mi West 15.0 mph 20.7 mph 0.02 in   Mostly Cloudy
2:15 PM 35.6 °F 27.1 °F 32.0 °F 87% 29.78 in 1.8 mi SW 12.7 mph - 0.03 in   Overcast
2:35 PM 35.6 °F 27.1 °F 32.0 °F 87% 29.78 in 2.0 mi West 12.7 mph 20.7 mph 0.04 in   Overcast
2:55 PM 33.8 °F 24.3 °F 30.2 °F 87% 29.78 in 5.0 mi WSW 13.8 mph 20.7 mph 0.05 in   Mostly Cloudy
3:15 PM 33.8 °F 25.8 °F 30.2 °F 87% 29.78 in 7.0 mi West 10.4 mph - N/A   Overcast
3:35 PM 33.8 °F 24.3 °F 30.2 °F 87% 29.77 in 0.5 mi West 13.8 mph 18.4 mph N/A   Overcast
3:55 PM 33.8 °F 24.8 °F 30.2 °F 87% 29.76 in 9.0 mi WSW 12.7 mph - N/A   Overcast
4:15 PM 33.8 °F 24.3 °F 30.2 °F 87% 29.77 in 10.0 mi West 13.8 mph 18.4 mph N/A   Mostly Cloudy
4:35 PM 33.8 °F 26.4 °F 32.0 °F 93% 29.78 in 10.0 mi West 9.2 mph - N/A   Overcast
4:55 PM 33.8 °F 27.7 °F 30.2 °F 87% 29.78 in 10.0 mi SW 6.9 mph - N/A   Overcast
5:15 PM 33.8 °F 27.7 °F 30.2 °F 87% 29.77 in 2.0 mi West 6.9 mph - N/A   Overcast
5:35 PM 33.8 °F 28.6 °F 30.2 °F 87% 29.78 in 2.0 mi West 5.8 mph - N/A   Overcast
5:55 PM 33.8 °F 29.6 °F 30.2 °F 87% 29.79 in 7.0 mi SW 4.6 mph - N/A   Overcast
6:15 PM 33.8 °F 28.6 °F 30.2 °F 87% 29.80 in 1.2 mi SW 5.8 mph - N/A   Overcast
6:35 PM 32.0 °F - 30.2 °F 93% 29.80 in 1.8 mi Calm Calm - N/A   Overcast
6:55 PM 32.0 °F - 28.4 °F 87% 29.80 in 9.0 mi Calm Calm - N/A   Mostly Cloudy
7:15 PM 32.0 °F 26.4 °F 28.4 °F 87% 29.80 in 10.0 mi SSW 5.8 mph - N/A   Overcast
7:35 PM 32.0 °F 28.7 °F 28.4 °F 87% 29.81 in 5.0 mi South 3.5 mph - N/A   Overcast
7:55 PM 32.0 °F 27.5 °F 26.6 °F 80% 29.81 in 7.0 mi West 4.6 mph - N/A   Overcast
8:15 PM 30.2 °F 25.4 °F 26.6 °F 86% 29.80 in 5.0 mi SSW 4.6 mph - N/A   Overcast
8:35 PM 30.2 °F 25.4 °F 26.6 °F 86% 29.80 in 10.0 mi SSW 4.6 mph - N/A   Mostly Cloudy
8:55 PM 30.2 °F 24.3 °F 26.6 °F 86% 29.81 in 10.0 mi SSE 5.8 mph - N/A   Overcast
9:15 PM 28.4 °F 23.3 °F 26.6 °F 93% 29.81 in 10.0 mi SSE 4.6 mph - N/A   Overcast
9:35 PM 28.4 °F 23.3 °F 26.6 °F 93% 29.82 in 10.0 mi SE 4.6 mph - N/A   Overcast
9:55 PM 28.4 °F - 24.8 °F 86% 29.80 in 10.0 mi Calm Calm - N/A   Overcast
10:15 PM 28.4 °F 23.3 °F 24.8 °F 86% 29.80 in 10.0 mi West 4.6 mph - N/A   Overcast
10:35 PM 28.4 °F 22.2 °F 24.8 °F 86% 29.80 in 10.0 mi SSW 5.8 mph - N/A   Overcast
10:55 PM 28.4 °F 21.2 °F 24.8 °F 86% 29.80 in 10.0 mi South 6.9 mph - N/A   Overcast
11:15 PM 28.4 °F 22.2 °F 24.8 °F 86% 29.80 in 10.0 mi SSE 5.8 mph - N/A   Overcast
11:35 PM 28.4 °F 22.2 °F 23.0 °F 80% 29.79 in 9.0 mi South 5.8 mph - N/A   Overcast
11:55 PM 28.4 °F 23.3 °F 23.0 °F 80% 29.78 in 9.0 mi SE 4.6 mph - N/A   Overcast